[[{"header":{"parameterUnit":"m.s-1","parameterCategory":2,"la1":30.2991,"la2":30.254,"lo1":-89.0895,"lo2":-89.0444,"dy":0.0017,"dx":0.0017,"nx":28,"ny":28,"refTime":"2025-04-21T09:00:00:Z","depth":"0","parameterNumber":2,"parameterNumberName":"U-component_of_CURRENTS"},"data":[0,0,0,0,0,0,0,0,0,0,0,0,0,0,0,0,0,0,0,0,0,0,0,0,0,0,0,0,0,0,0,0,0,0,0,0,0,0,0,0,0,0,0,0,0,0,0,0,0,0,0,0,0,0,0,0,0,0,0.2404,0.2405,0,0.2456,0.2456,0.2456,0.2479,0.248,0.248,0.2481,0.2476,0.2476,0.2475,0,0,0,0,0,0,0,0,0,0,0,0,0,0.228,0.2282,0.2404,0.2405,0.2406,0.2456,0.2456,0.2456,0.2479,0.248,0.248,0.2481,0.2476,0.2476,0.2475,0,0,0,0,0,0,0,0,0,0,0,0,0,0.2328,0.2282,0.2404,0.2427,0.243,0.2456,0.2456,0.2456,0.2479,0.248,0.248,0.2481,0.2476,0.2476,0.2475,0.2459,0,0,0.2473,0.2472,0,0,0,0,0,0,0,0,0.2325,0.2332,0.2423,0.2426,0.2429,0.2466,0.2411,0.2456,0.2479,0.2455,0.2481,0.2481,0.247,0.247,0.2472,0.2459,0.2459,0.2473,0.2472,0.2472,0.2472,0,0,0,0,0,0,0,0.2322,0.233,0.2419,0.2424,0.2428,0.242,0.2428,0.2419,0.2454,0.2457,0.2461,0.2474,0.2471,0.2473,0.2472,0.2458,0.2473,0.2472,0.2472,0.2471,0.2461,0.2461,0,0,0,0,0,0,0.2328,0.2327,0.2418,0.2422,0.2383,0.2423,0.2431,0.245,0.2455,0.2459,0.2474,0.2475,0.2474,0.2473,0.2472,0.2485,0.2472,0.2471,0.2471,0.2461,0.2461,0.2461,0,0,0,0,0,0,0.2325,0.2336,0.2416,0.2379,0.2389,0.2425,0.2446,0.245,0.2457,0.2469,0.2471,0.2476,0.2474,0.2473,0.2476,0.2484,0.2471,0.247,0.2461,0.2461,0.2461,0.2489,0,0,0,0,0,0,0.2321,0.2334,0.2342,0.238,0.2392,0.243,0.2446,0.2451,0.2466,0.2469,0.2471,0.2472,0.2475,0.2477,0.2475,0.2482,0.247,0.2461,0.2461,0.2461,0.2488,0.2491,0.2493,0,0,0,0,0,0.2317,0.2315,0.2342,0.2353,0.2405,0.243,0.2435,0.2458,0.2466,0.2465,0.2476,0.2472,0.2478,0.2477,0.2475,0.2481,0.246,0.2461,0.2461,0.2487,0.249,0.2493,0,0,0,0,0,0,0.2255,0.232,0.2349,0.2367,0.2402,0.2436,0.2436,0.2456,0.2464,0.2465,0.2473,0.2474,0.2481,0.2472,0.2471,0.2479,0.2468,0.2468,0.2489,0.2491,0.2493,0.2508,0.2469,0,0,0,0,0,0.2252,0.227,0.2332,0.2342,0.2363,0.2401,0.2412,0.2435,0.2453,0.2457,0.2464,0.2469,0.2478,0.2479,0.248,0.2479,0.2507,0.2481,0.2484,0.2485,0.2495,0.2541,0.2549,0.2462,0.2462,0.2462,0,0,0.2226,0.2267,0.2274,0.2331,0.2357,0.2388,0.2407,0.2426,0.245,0.2453,0.2469,0.2475,0.248,0.2489,0.249,0.2484,0.2529,0.2486,0.2488,0.2497,0.2543,0.2551,0.2559,0.2463,0.2463,0.2463,0,0,0.2191,0.2228,0.2241,0.2278,0.2333,0.2363,0.2371,0.2415,0.2432,0.2452,0.2467,0.2482,0.2482,0.25,0.2506,0.2517,0.254,0.251,0.2532,0.2576,0.2585,0.2592,0.266,0.2673,0.251,0.251,0.251,0,0.216,0.2202,0.2243,0.2275,0.231,0.2354,0.2385,0.2405,0.2442,0.2464,0.2458,0.2496,0.2492,0.2528,0.2534,0.2523,0.2561,0.2523,0.2582,0.2589,0.2596,0.2664,0.2678,0.2511,0.2511,0.2511,0.2511,0,0.2156,0.2191,0.2197,0.2267,0.2299,0.2326,0.2385,0.2407,0.2434,0.2468,0.2506,0.2514,0.2543,0.2539,0.2539,0.2587,0.2604,0.2582,0.258,0.2607,0.2677,0.2691,0.2513,0.2513,0.2512,0.2512,0,0,0.209,0.2179,0.2185,0.2226,0.2306,0.2332,0.2375,0.2438,0.2473,0.2502,0.2552,0.2567,0.2586,0.2594,0.26,0.2631,0.2713,0.2628,0.263,0.2705,0.284,0.2867,0.2885,0.2705,0.2707,0.2709,0.2877,0,0.2083,0.214,0.2191,0.2242,0.2284,0.2349,0.2385,0.2443,0.2491,0.2542,0.2577,0.2615,0.2604,0.262,0.2655,0.2698,0.2749,0.2671,0.2794,0.2799,0.2826,0.2902,0.2801,0.2943,0.2891,0.2893,0.2895,0,0.2084,0.2125,0.2178,0.2261,0.2283,0.2313,0.2401,0.2441,0.2526,0.2562,0.2623,0.2659,0.2726,0.2696,0.2813,0.2768,0.2811,0.284,0.2847,0.2871,0.2851,0.2902,0.2972,0.2859,0.2917,0.2916,0.2914,0,0.2047,0.2122,0.2165,0.2195,0.2285,0.2314,0.2358,0.2444,0.2499,0.2582,0.2637,0.2716,0.2771,0.2832,0.2913,0.2868,0.3047,0.2989,0.3063,0.3067,0.3006,0.3,0.2987,0.3076,0.3076,0.3075,0.3075,0,0.2043,0.2075,0.2145,0.217,0.2212,0.2285,0.234,0.2396,0.2496,0.2566,0.2643,0.2727,0.2807,0.2922,0.2962,0.3089,0.3099,0.3101,0.3119,0.3014,0.3008,0.2925,0.2878,0.3082,0.308,0.3079,0.3078,0,0.2007,0.2058,0.2104,0.2179,0.2201,0.2229,0.233,0.2376,0.2471,0.2571,0.2606,0.2771,0.2919,0.3023,0.3148,0.317,0.3185,0.3301,0.3192,0.3194,0.3123,0.3082,0.3037,0.295,0.3403,0.3405,0.3406,0,0.1998,0.2019,0.2089,0.2113,0.2145,0.2197,0.2237,0.2343,0.2409,0.2598,0.2653,0.2844,0.297,0.3207,0.329,0.3414,0.3269,0.3374,0.3254,0.314,0.3107,0.2963,0.288,0.3195,0.3194,0.3194,0.3194,0,0.1971,0.1992,0.2028,0.2068,0.2107,0.2157,0.2229,0.2281,0.2411,0.2519,0.2684,0.2807,0.3063,0.3172,0.3356,0.3402,0.3202,0.3372,0.3266,0.2971,0.28,0.2717,0.3082,0.3191,0.3191,0.3192,0.3192,0.3192,0.1937,0.1948,0.1987,0.2022,0.2064,0.2104,0.2119,0.2218,0.2319,0.2454,0.2631,0.2767,0.2982,0.3242,0.3284,0.3266,0.3227,0.3154,0.3131,0.3007,0.2859,0.3245,0.3359,0.336,0.3361,0.3362,0.3362,0,0.1879,0.1903,0.194,0.1974,0.1988,0.2034,0.2102,0.2111,0.2186,0.235,0.2489,0.2684,0.2834,0.2974,0.3086,0.3014,0.2858,0.2926,0.266,0.2602,0.2964,0.2887,0.2887,0.2887,0.2887,0.2887,0.2887,0.2887,0.1852,0.1855,0.1877,0.1882,0.1905,0.1895,0.191,0.1948,0.2038,0.215,0.2249,0.2394,0.265,0.2842,0.2816,0.2756,0.2512,0.2451,0.2418,0.2632,0.2648,0.2663,0.2576,0.251,0.251,0.1923,0.1919,0.1916]},{"header":{"parameterUnit":"m.s-1","parameterCategory":2,"la1":30.2991,"la2":30.254,"lo1":-89.0895,"lo2":-89.0444,"dy":0.0017,"dx":0.0017,"nx":28,"ny":28,"refTime":"2025-04-21T09:00:00:Z","depth":"0","parameterNumber":3,"parameterNumberName":"V-component_of_CURRENTS"},"data":[0,0,0,0,0,0,0,0,0,0,0,0,0,0,0,0,0,0,0,0,0,0,0,0,0,0,0,0,0,0,0,0,0,0,0,0,0,0,0,0,0,0,0,0,0,0,0,0,0,0,0,0,0,0,0,0,0,0,0.025,0.0249,0,0.015,0.0149,0.0148,0.0102,0.0102,0.0102,0.0102,-0.0027,-0.003,-0.0033,0,0,0,0,0,0,0,0,0,0,0,0,0,0.031,0.031,0.025,0.0249,0.0248,0.015,0.0149,0.0147,0.0102,0.0102,0.0102,0.0102,-0.0025,-0.003,-0.0034,0,0,0,0,0,0,0,0,0,0,0,0,0,0.0254,0.031,0.025,0.0214,0.0209,0.015,0.0149,0.0147,0.0102,0.0102,0.0102,0.0102,-0.0024,-0.0029,-0.0034,-0.0071,0,0,-0.0051,-0.0053,0,0,0,0,0,0,0,0,0.0258,0.0252,0.022,0.0216,0.0211,0.0139,0.0123,0.0073,0.0102,0.0142,0.0102,0.0102,0.0026,0.0017,-0.0003,-0.0077,-0.0083,-0.0051,-0.0054,-0.0057,-0.0058,0,0,0,0,0,0,0,0.0262,0.0256,0.021,0.0219,0.0213,0.017,0.0164,0.0113,0.0084,0.0139,0.0135,0.0125,0.0024,0.0003,-0.0006,-0.0085,-0.0051,-0.0056,-0.0059,-0.0061,-0.0205,-0.0206,0,0,0,0,0,0,0.028,0.026,0.0213,0.0207,0.0236,0.017,0.0162,0.0162,0.0085,0.0073,0.0125,0.0123,0.0012,0.0,-0.0011,-0.0052,-0.0057,-0.0062,-0.0065,-0.0205,-0.0205,-0.0206,0,0,0,0,0,0,0.0281,0.0277,0.0217,0.0231,0.022,0.0169,0.0169,0.016,0.0137,0.0074,0.0062,0.0112,0.0011,-0.0003,-0.0052,-0.0057,-0.0064,-0.0069,-0.0204,-0.0205,-0.0206,-0.0138,0,0,0,0,0,0,0.0284,0.0278,0.0282,0.0233,0.022,0.0189,0.0168,0.0157,0.0131,0.0128,0.0059,0.0048,0.001,-0.0043,-0.0057,-0.0065,-0.0073,-0.0203,-0.0204,-0.0205,-0.0139,-0.0137,-0.0134,0,0,0,0,0,0.0286,0.0292,0.0283,0.0277,0.0229,0.0189,0.0179,0.0142,0.013,0.0123,0.0078,0.005,-0.0061,-0.0048,-0.0064,-0.0073,-0.0203,-0.0204,-0.0205,-0.0141,-0.0137,-0.0134,0,0,0,0,0,0,0.0314,0.0287,0.0276,0.0272,0.0237,0.0182,0.0172,0.0144,0.0102,0.01,0.0042,0.0027,-0.0017,-0.0058,-0.0043,-0.012,-0.0137,-0.0142,-0.0083,-0.008,-0.0077,-0.0049,-0.0077,0,0,0,0,0,0.0325,0.0323,0.0286,0.0279,0.027,0.0221,0.02,0.0175,0.0132,0.0114,0.0066,0.0012,-0.0037,-0.0066,-0.0114,-0.0158,-0.0178,-0.0177,-0.0174,-0.0171,-0.016,-0.0199,-0.0198,-0.0211,-0.0211,-0.0211,0,0,0.0329,0.0315,0.0311,0.0284,0.0258,0.0246,0.0209,0.0184,0.0168,0.0105,0.0072,0.0021,-0.0047,-0.009,-0.0114,-0.0124,-0.0175,-0.0173,-0.017,-0.016,-0.02,-0.0198,-0.0197,-0.0212,-0.0212,-0.0211,0,0,0.0342,0.0332,0.034,0.0318,0.0288,0.0261,0.0258,0.0209,0.0186,0.0144,0.0097,0.0049,-0.0031,-0.0074,-0.0109,-0.0124,-0.0157,-0.0148,-0.0114,-0.0152,-0.015,-0.0149,-0.0153,-0.0153,-0.0149,-0.0149,-0.0149,0,0.0352,0.0359,0.0331,0.0333,0.0322,0.0275,0.0277,0.0243,0.0181,0.0165,0.0145,0.0037,-0.0021,-0.0073,-0.008,-0.0116,-0.0132,-0.0116,-0.0145,-0.0145,-0.0145,-0.015,-0.0151,-0.0146,-0.0146,-0.0146,-0.0147,0,0.0374,0.0375,0.0377,0.0372,0.0353,0.0346,0.0306,0.0282,0.025,0.0214,0.0161,0.0086,0.0026,-0.0009,-0.0052,-0.0088,-0.0096,-0.0131,-0.0144,-0.0139,-0.0145,-0.0147,-0.0141,-0.0142,-0.0143,-0.0144,0,0,0.0417,0.0401,0.0404,0.0408,0.0378,0.0368,0.0346,0.0318,0.0314,0.0247,0.0236,0.0136,0.0103,0.0061,-0.0002,-0.0044,-0.006,-0.0084,-0.0087,-0.007,-0.0117,-0.0096,-0.0096,-0.0101,-0.0102,-0.0102,-0.0113,0,0.0449,0.0469,0.0448,0.0458,0.0466,0.0422,0.0409,0.0372,0.0338,0.0316,0.0236,0.0199,0.0126,0.0103,0.005,-0.0031,-0.0065,-0.0052,-0.0141,-0.0142,-0.011,-0.0098,-0.0088,-0.0095,-0.0115,-0.0116,-0.0116,0,0.0487,0.0497,0.0518,0.0511,0.0513,0.0508,0.0495,0.0475,0.0427,0.04,0.035,0.0296,0.0228,0.0166,0.0047,0.006,-0.0019,-0.0084,-0.0087,-0.009,-0.0125,-0.0111,-0.0098,-0.026,-0.0119,-0.0119,-0.0119,0,0.054,0.0547,0.057,0.0567,0.055,0.055,0.0539,0.0502,0.0509,0.0459,0.0469,0.0373,0.035,0.0225,0.0102,0.007,-0.0013,-0.0076,-0.0127,-0.0126,-0.0145,-0.0145,-0.0286,-0.0158,-0.0157,-0.0157,-0.0157,0,0.0586,0.0606,0.0598,0.0609,0.0642,0.0604,0.0632,0.0603,0.0596,0.0623,0.0522,0.0543,0.0362,0.0297,0.015,0.0032,0.0026,-0.0106,-0.0129,-0.012,-0.0117,-0.0283,-0.0362,-0.0158,-0.0158,-0.0158,-0.0158,0,0.0637,0.0631,0.0659,0.0659,0.0664,0.0685,0.0706,0.0732,0.0706,0.0743,0.0738,0.0687,0.0603,0.0435,0.0263,0.0125,-0.0092,-0.006,-0.0014,-0.0032,-0.0247,-0.0321,-0.0448,-0.0508,-0.0127,-0.0126,-0.0126,0,0.0665,0.0683,0.0706,0.0732,0.0736,0.0764,0.0792,0.0784,0.0826,0.0843,0.0884,0.0832,0.0824,0.0603,0.0348,0.0122,-0.0047,-0.0028,-0.0105,-0.0243,-0.0344,-0.0401,-0.0447,-0.01,-0.0099,-0.0099,-0.0099,0,0.0717,0.0724,0.075,0.0803,0.084,0.0891,0.0935,0.0995,0.0998,0.1048,0.1126,0.113,0.0932,0.0742,0.0432,0.0243,-0.0126,-0.0025,-0.0201,-0.035,-0.0391,-0.0464,-0.0089,-0.0095,-0.0095,-0.0095,-0.0096,-0.0096,0.0755,0.0791,0.0822,0.0877,0.0928,0.1008,0.107,0.1145,0.1241,0.1333,0.1334,0.1365,0.1052,0.0646,0.0396,-0.0091,-0.0093,-0.0258,-0.0336,-0.0381,-0.0445,-0.0033,-0.0049,-0.0049,-0.0049,-0.0049,-0.0049,0,0.0788,0.0831,0.0891,0.0957,0.1029,0.1044,0.116,0.1242,0.138,0.1475,0.1559,0.1419,0.1043,0.0603,-0.0018,-0.0345,-0.049,-0.054,-0.0655,-0.0689,-0.0357,-0.0364,-0.041,-0.041,-0.041,-0.041,-0.041,-0.041,0.0804,0.0865,0.09,0.1021,0.1082,0.1191,0.1268,0.1407,0.1504,0.1638,0.1659,0.166,0.1305,0.0239,-0.0499,-0.0679,-0.0932,-0.0961,-0.1078,-0.09,-0.0881,-0.0863,-0.0892,-0.1048,-0.1048,-0.1382,-0.1386,-0.1389]}],[{"header":{"parameterUnit":"m.s-1","parameterCategory":2,"la1":30.2991,"la2":30.254,"lo1":-89.0895,"lo2":-89.0444,"dy":0.0017,"dx":0.0017,"nx":28,"ny":28,"refTime":"2025-04-21T09:00:00:Z","depth":"2","parameterNumber":2,"parameterNumberName":"U-component_of_CURRENTS"},"data":[0,0,0,0,0,0,0,0,0,0,0,0,0,0,0,0,0,0,0,0,0,0,0,0,0,0,0,0,0,0,0,0,0,0,0,0,0,0,0,0,0,0,0,0,0,0,0,0,0,0,0,0,0,0,0,0,0,0,0.2086,0.2087,0,0.2157,0.2158,0.2158,0.2207,0.2208,0.2209,0.221,0.2211,0.221,0.2209,0,0,0,0,0,0,0,0,0,0,0,0,0,0.2018,0.2018,0.2086,0.2087,0.2089,0.2157,0.2158,0.2158,0.2207,0.2208,0.2209,0.2211,0.2211,0.221,0.2209,0,0,0,0,0,0,0,0,0,0,0,0,0,0.2057,0.2018,0.2085,0.2127,0.2132,0.2157,0.2158,0.2158,0.2207,0.2208,0.221,0.2211,0.2212,0.221,0.2209,0.2169,0,0,0.2205,0.2204,0,0,0,0,0,0,0,0,0.2055,0.2058,0.2119,0.2124,0.213,0.2181,0.2135,0.2161,0.2206,0.217,0.221,0.2212,0.2198,0.2198,0.2199,0.2169,0.2169,0.2205,0.2204,0.2203,0.2203,0,0,0,0,0,0,0,0.2052,0.2056,0.2106,0.2121,0.2128,0.2152,0.2158,0.214,0.2168,0.2174,0.2179,0.2199,0.22,0.22,0.2199,0.2169,0.2205,0.2203,0.2203,0.2202,0.2198,0.2199,0,0,0,0,0,0,0.2055,0.2053,0.2104,0.2109,0.2104,0.2152,0.2159,0.2157,0.217,0.2176,0.2197,0.2201,0.2201,0.22,0.2199,0.2214,0.2203,0.2202,0.2201,0.2197,0.2198,0.2199,0,0,0,0,0,0,0.2052,0.2057,0.2102,0.209,0.2099,0.2152,0.215,0.2158,0.2174,0.219,0.2193,0.2208,0.2203,0.2201,0.2203,0.2212,0.2201,0.22,0.2196,0.2198,0.2199,0.2203,0,0,0,0,0,0,0.205,0.2055,0.2063,0.2089,0.21,0.212,0.2149,0.2158,0.2186,0.2192,0.2199,0.2201,0.2204,0.2205,0.2201,0.221,0.2199,0.2195,0.2197,0.2198,0.2202,0.2204,0.2206,0,0,0,0,0,0.2046,0.2047,0.2062,0.2069,0.2104,0.212,0.2126,0.2166,0.2186,0.2186,0.2203,0.2201,0.2212,0.2204,0.22,0.2208,0.2195,0.2196,0.2198,0.2201,0.2204,0.2206,0,0,0,0,0,0,0.2016,0.2053,0.207,0.208,0.2103,0.2132,0.2149,0.2166,0.2178,0.2192,0.2197,0.2199,0.2207,0.2205,0.2196,0.2214,0.2208,0.2209,0.2212,0.2214,0.2216,0.2247,0.2198,0,0,0,0,0,0.2014,0.2025,0.2058,0.2066,0.208,0.2112,0.2129,0.2152,0.2169,0.2178,0.2184,0.2198,0.2206,0.2209,0.2211,0.2207,0.2247,0.2215,0.2217,0.2219,0.2243,0.2309,0.232,0.2204,0.2204,0.2204,0,0,0.2002,0.2029,0.2033,0.2062,0.2085,0.2089,0.2124,0.215,0.2161,0.2172,0.2185,0.2198,0.2207,0.2216,0.222,0.2217,0.2273,0.2221,0.2222,0.2246,0.2312,0.2324,0.2334,0.2206,0.2205,0.2205,0,0,0.1983,0.2009,0.2012,0.2035,0.208,0.2087,0.2094,0.2125,0.2153,0.2167,0.2186,0.2211,0.221,0.2229,0.2236,0.2248,0.228,0.2247,0.2279,0.2342,0.2353,0.2362,0.2427,0.2442,0.2249,0.2249,0.2249,0,0.197,0.1982,0.2014,0.203,0.2061,0.208,0.2093,0.2105,0.2133,0.2172,0.2177,0.2229,0.2224,0.2258,0.2269,0.2253,0.2301,0.2264,0.2346,0.2356,0.2366,0.243,0.2447,0.2249,0.2249,0.2249,0.2249,0,0.1955,0.1974,0.1981,0.2001,0.2027,0.2043,0.2076,0.21,0.2135,0.2163,0.2226,0.2239,0.2284,0.2277,0.2276,0.234,0.2355,0.2339,0.234,0.2379,0.2443,0.2461,0.225,0.2249,0.2249,0.2249,0,0,0.1908,0.1958,0.1965,0.1997,0.2028,0.2053,0.2074,0.212,0.2169,0.2198,0.2276,0.229,0.2328,0.2341,0.2346,0.2395,0.2491,0.2403,0.2406,0.2469,0.2649,0.259,0.2604,0.2495,0.2498,0.2501,0.2666,0,0.1891,0.1923,0.1951,0.1981,0.2008,0.2058,0.2081,0.2134,0.2187,0.2253,0.2305,0.2361,0.2339,0.2382,0.2425,0.2482,0.2539,0.2449,0.2602,0.2608,0.2551,0.2622,0.2358,0.2477,0.2683,0.2686,0.2688,0,0.1875,0.191,0.1944,0.2023,0.2042,0.2055,0.2156,0.218,0.2265,0.2326,0.2398,0.2437,0.2515,0.2491,0.2624,0.2574,0.2622,0.2658,0.2665,0.2626,0.2581,0.2473,0.2502,0.2718,0.2716,0.2714,0.2712,0,0.1862,0.1914,0.1953,0.1978,0.2044,0.2095,0.2126,0.2212,0.2269,0.2378,0.2446,0.2534,0.2603,0.2678,0.2749,0.2707,0.2903,0.2847,0.2841,0.2837,0.2652,0.2626,0.2954,0.2954,0.2954,0.2953,0.2953,0,0.1846,0.1882,0.1958,0.1983,0.2038,0.2107,0.2176,0.2232,0.2337,0.2397,0.2479,0.256,0.2659,0.2767,0.281,0.2896,0.2957,0.288,0.2886,0.2644,0.2617,0.285,0.2836,0.2959,0.2958,0.2957,0.2956,0,0.1819,0.1862,0.1911,0.2,0.2027,0.2072,0.2171,0.2226,0.2336,0.2426,0.2469,0.2621,0.276,0.2856,0.2999,0.2975,0.3059,0.3069,0.2784,0.2752,0.2936,0.292,0.3083,0.3082,0.3082,0.3082,0.3081,0,0.1804,0.1828,0.1907,0.193,0.1966,0.204,0.208,0.2198,0.226,0.2447,0.2489,0.2674,0.2753,0.2955,0.2954,0.3036,0.3111,0.2855,0.271,0.2965,0.2955,0.2939,0.2924,0.2471,0.2466,0.2461,0.2458,0,0.177,0.18,0.183,0.1873,0.192,0.197,0.2048,0.2093,0.223,0.2334,0.2476,0.2568,0.2722,0.2685,0.2794,0.2798,0.2814,0.277,0.314,0.247,0.2399,0.2384,0.2388,0.2419,0.2423,0.2426,0.2428,0.243,0.1731,0.1731,0.1766,0.1795,0.185,0.1886,0.1901,0.1999,0.2084,0.2171,0.2313,0.2365,0.2424,0.2435,0.2428,0.2444,0.2616,0.2519,0.2528,0.2542,0.2433,0.2363,0.2359,0.2362,0.2365,0.2367,0.237,0,0.166,0.1665,0.1688,0.1711,0.1731,0.1811,0.1866,0.185,0.1907,0.1994,0.2062,0.1914,0.1912,0.2035,0.1966,0.1996,0.1928,0.1967,0.1844,0.1885,0.192,0.1774,0.1528,0.1525,0.1523,0.1521,0,0,0.1618,0.1591,0.1587,0.1573,0.1625,0.1641,0.166,0.1648,0.1681,0.1649,0.1666,0.1725,0.1904,0.1633,0.164,0.1582,0.1712,0.1529,0.2201,0.2092,0.2123,0.2238,0.206,0,0,0,0,0]},{"header":{"parameterUnit":"m.s-1","parameterCategory":2,"la1":30.2991,"la2":30.254,"lo1":-89.0895,"lo2":-89.0444,"dy":0.0017,"dx":0.0017,"nx":28,"ny":28,"refTime":"2025-04-21T09:00:00:Z","depth":"2","parameterNumber":3,"parameterNumberName":"V-component_of_CURRENTS"},"data":[0,0,0,0,0,0,0,0,0,0,0,0,0,0,0,0,0,0,0,0,0,0,0,0,0,0,0,0,0,0,0,0,0,0,0,0,0,0,0,0,0,0,0,0,0,0,0,0,0,0,0,0,0,0,0,0,0,0,-0.0389,-0.0388,0,-0.0382,-0.0383,-0.0384,-0.0411,-0.041,-0.041,-0.041,-0.05,-0.0503,-0.0505,0,0,0,0,0,0,0,0,0,0,0,0,0,-0.0345,-0.0347,-0.0389,-0.0388,-0.0387,-0.0382,-0.0383,-0.0384,-0.0411,-0.041,-0.041,-0.041,-0.0499,-0.0502,-0.0506,0,0,0,0,0,0,0,0,0,0,0,0,0,-0.0364,-0.0348,-0.0389,-0.0391,-0.0391,-0.0382,-0.0383,-0.0384,-0.0411,-0.041,-0.041,-0.041,-0.0498,-0.0502,-0.0506,-0.0537,0,0,-0.0518,-0.052,0,0,0,0,0,0,0,0,-0.0363,-0.0368,-0.0392,-0.0391,-0.039,-0.0387,-0.04,-0.0436,-0.0411,-0.0415,-0.041,-0.041,-0.0464,-0.0471,-0.0485,-0.0541,-0.0545,-0.0518,-0.0521,-0.0522,-0.0523,0,0,0,0,0,0,0,-0.0362,-0.0367,-0.0398,-0.0391,-0.0389,-0.0364,-0.0369,-0.0407,-0.0452,-0.0415,-0.0414,-0.0395,-0.0466,-0.0481,-0.0487,-0.0546,-0.0518,-0.0522,-0.0524,-0.0526,-0.0616,-0.0616,0,0,0,0,0,0,-0.0346,-0.0367,-0.0398,-0.0396,-0.0363,-0.0365,-0.037,-0.0398,-0.045,-0.0453,-0.0395,-0.0396,-0.0475,-0.0483,-0.0491,-0.0518,-0.0522,-0.0526,-0.0528,-0.0616,-0.0616,-0.0616,0,0,0,0,0,0,-0.0346,-0.0351,-0.0398,-0.0369,-0.0372,-0.0365,-0.0396,-0.0397,-0.0396,-0.0432,-0.044,-0.0389,-0.0475,-0.0485,-0.0525,-0.0522,-0.0528,-0.0531,-0.0615,-0.0616,-0.0616,-0.0581,0,0,0,0,0,0,-0.0345,-0.0352,-0.0344,-0.037,-0.0373,-0.0386,-0.0395,-0.0397,-0.0381,-0.0382,-0.043,-0.0438,-0.0475,-0.0519,-0.0529,-0.0527,-0.0534,-0.0615,-0.0616,-0.0616,-0.0582,-0.058,-0.0578,0,0,0,0,0,-0.0345,-0.0336,-0.0346,-0.0347,-0.0373,-0.0384,-0.0385,-0.0384,-0.038,-0.0383,-0.042,-0.0436,-0.0526,-0.0523,-0.0534,-0.0534,-0.0615,-0.0615,-0.0616,-0.0583,-0.058,-0.0578,0,0,0,0,0,0,-0.029,-0.0338,-0.0349,-0.035,-0.0361,-0.0384,-0.0369,-0.0373,-0.0403,-0.0399,-0.0446,-0.0459,-0.0486,-0.0517,-0.0512,-0.0559,-0.0569,-0.0572,-0.054,-0.0538,-0.0536,-0.0488,-0.0538,0,0,0,0,0,-0.028,-0.0295,-0.0331,-0.0319,-0.0337,-0.0353,-0.0347,-0.0351,-0.0379,-0.0389,-0.0423,-0.046,-0.0499,-0.0522,-0.0556,-0.0591,-0.0592,-0.0595,-0.0593,-0.0591,-0.0559,-0.0572,-0.0568,-0.0616,-0.0616,-0.0616,0,0,-0.0239,-0.0268,-0.0268,-0.0307,-0.0324,-0.0352,-0.0353,-0.0344,-0.0346,-0.0396,-0.0414,-0.045,-0.0504,-0.054,-0.0555,-0.0565,-0.0581,-0.0591,-0.0589,-0.0558,-0.0572,-0.0567,-0.0562,-0.0616,-0.0616,-0.0616,0,0,-0.0184,-0.022,-0.0227,-0.025,-0.0267,-0.0307,-0.0303,-0.0333,-0.033,-0.0348,-0.0387,-0.0419,-0.0474,-0.0518,-0.0547,-0.0552,-0.0563,-0.0562,-0.0523,-0.0537,-0.0532,-0.0529,-0.0531,-0.0527,-0.0569,-0.0569,-0.0569,0,-0.0134,-0.0168,-0.0217,-0.0237,-0.0239,-0.0295,-0.0299,-0.0321,-0.0345,-0.0332,-0.0343,-0.0407,-0.046,-0.0505,-0.051,-0.0546,-0.0545,-0.0531,-0.0532,-0.0528,-0.0525,-0.0528,-0.0525,-0.0568,-0.0568,-0.0568,-0.0568,0,-0.0108,-0.0126,-0.0132,-0.0204,-0.0213,-0.0225,-0.027,-0.0277,-0.0285,-0.0295,-0.0302,-0.037,-0.0402,-0.0436,-0.0477,-0.0487,-0.0491,-0.0522,-0.0534,-0.0517,-0.0523,-0.052,-0.0565,-0.0566,-0.0566,-0.0567,0,0,-0.0041,-0.0107,-0.0108,-0.0112,-0.0196,-0.0193,-0.0219,-0.0246,-0.0223,-0.0257,-0.0221,-0.0309,-0.0321,-0.0353,-0.0413,-0.0433,-0.043,-0.0459,-0.046,-0.0451,-0.044,-0.0457,-0.0456,-0.0457,-0.0456,-0.0455,-0.0456,0,-0.0015,-0.0027,-0.0076,-0.0076,-0.0094,-0.0145,-0.0154,-0.0164,-0.018,-0.0168,-0.0218,-0.0222,-0.0302,-0.0303,-0.0341,-0.0393,-0.0417,-0.0425,-0.0464,-0.0464,-0.0474,-0.0451,-0.043,-0.0429,-0.0453,-0.0452,-0.0452,0,0.001,-0.0003,0.0006,0.0001,-0.0008,-0.0012,-0.0011,-0.002,-0.0043,-0.0036,-0.0064,-0.0101,-0.0148,-0.0203,-0.0286,-0.0281,-0.0347,-0.0395,-0.0397,-0.0413,-0.0475,-0.0449,-0.0422,-0.0447,-0.0447,-0.0448,-0.0448,0,0.0088,0.0061,0.008,0.0072,0.0039,0.0071,0.0054,0.0039,0.006,0.0053,0.0076,0.0009,0.0002,-0.0088,-0.0205,-0.0233,-0.0271,-0.0336,-0.0416,-0.0418,-0.0405,-0.0407,-0.038,-0.038,-0.038,-0.038,-0.038,0,0.0118,0.0138,0.0133,0.0145,0.0192,0.0169,0.0222,0.0199,0.0208,0.0235,0.0155,0.017,0.0038,-0.0017,-0.0142,-0.0253,-0.0232,-0.0382,-0.0413,-0.0395,-0.0396,-0.0417,-0.0421,-0.038,-0.038,-0.038,-0.038,0,0.0184,0.0169,0.0198,0.021,0.0226,0.027,0.0302,0.0334,0.0337,0.0373,0.038,0.0318,0.0251,0.011,-0.0017,-0.016,-0.0275,-0.0327,-0.0289,-0.0315,-0.0429,-0.0432,-0.041,-0.041,-0.0411,-0.0411,-0.0411,0,0.0204,0.0229,0.0262,0.0284,0.029,0.035,0.0377,0.0391,0.042,0.0454,0.0474,0.0446,0.0395,0.021,0.0003,-0.0191,-0.0238,-0.032,-0.0389,-0.0396,-0.0429,-0.0431,-0.0433,-0.0361,-0.0361,-0.0361,-0.0361,0,0.0241,0.0262,0.0277,0.0329,0.0373,0.0419,0.0471,0.0517,0.0537,0.0602,0.0645,0.0626,0.0446,0.0264,0.0006,-0.0142,-0.0288,-0.0325,-0.0323,-0.0363,-0.0353,-0.0384,-0.0387,-0.036,-0.036,-0.036,-0.036,-0.036,0.0265,0.0283,0.0313,0.0351,0.0412,0.0474,0.0529,0.0607,0.0698,0.0783,0.0745,0.0742,0.0508,0.0196,-0.0034,-0.0259,-0.0276,-0.0388,-0.0387,-0.0387,-0.0387,-0.0378,-0.0389,-0.039,-0.039,-0.039,-0.039,0,0.0262,0.0286,0.0328,0.0374,0.0441,0.0494,0.0575,0.0642,0.0782,0.0864,0.0914,0.0707,0.0484,0.0249,-0.0089,-0.0333,-0.0357,-0.0399,-0.0378,-0.0378,-0.0378,-0.0378,-0.0378,-0.0379,-0.0379,-0.0379,0,0,0.0258,0.0275,0.0283,0.037,0.0452,0.0568,0.0636,0.076,0.0842,0.0954,0.0989,0.0892,0.0577,0.0333,0.0023,-0.0161,-0.0216,-0.0203,-0.0192,-0.0131,-0.0128,-0.0354,-0.0351,0,0,0,0,0]}],[{"header":{"parameterUnit":"m.s-1","parameterCategory":2,"la1":30.2991,"la2":30.254,"lo1":-89.0895,"lo2":-89.0444,"dy":0.0017,"dx":0.0017,"nx":28,"ny":28,"refTime":"2025-04-21T09:00:00:Z","depth":"4","parameterNumber":2,"parameterNumberName":"U-component_of_CURRENTS"},"data":[0,0,0,0,0,0,0,0,0,0,0,0,0,0,0,0,0,0,0,0,0,0,0,0,0,0,0,0,0,0,0,0,0,0,0,0,0,0,0,0,0,0,0,0,0,0,0,0,0,0,0,0,0,0,0,0,0,0,0.0736,0.0737,0,0.0759,0.0759,0.0758,0.0784,0.0786,0.0787,0.0788,0.0855,0.0856,0.0856,0,0,0,0,0,0,0,0,0,0,0,0,0,0.068,0.068,0.0736,0.0737,0.0738,0.0759,0.0759,0.0758,0.0784,0.0786,0.0787,0.0789,0.0855,0.0856,0.0856,0,0,0,0,0,0,0,0,0,0,0,0,0,0.0695,0.0681,0.0736,0.0761,0.0764,0.0759,0.0758,0.0758,0.0784,0.0786,0.0788,0.079,0.0855,0.0856,0.0856,0.0823,0,0,0.0859,0.086,0,0,0,0,0,0,0,0,0.0694,0.0696,0.0756,0.0759,0.0763,0.0779,0.0764,0.0785,0.0783,0.0766,0.0788,0.0791,0.0839,0.0841,0.0827,0.0827,0.0829,0.0859,0.086,0.086,0.086,0,0,0,0,0,0,0,0.0693,0.0695,0.0735,0.0757,0.0762,0.076,0.0764,0.0767,0.0785,0.0768,0.0772,0.079,0.084,0.0826,0.0829,0.083,0.0859,0.086,0.0861,0.0861,0.104,0.1044,0,0,0,0,0,0,0.0709,0.0694,0.0735,0.0737,0.0743,0.0761,0.0764,0.0764,0.0784,0.0791,0.0788,0.0791,0.0823,0.0828,0.0831,0.0943,0.086,0.0861,0.0861,0.1036,0.1041,0.1046,0,0,0,0,0,0,0.0707,0.0712,0.0734,0.0725,0.0729,0.0761,0.076,0.0764,0.0797,0.0801,0.0807,0.0824,0.0825,0.083,0.0896,0.094,0.0861,0.0862,0.1031,0.1037,0.1043,0.107,0,0,0,0,0,0,0.0705,0.071,0.0711,0.0725,0.073,0.0769,0.076,0.0763,0.0807,0.0811,0.0833,0.0838,0.0827,0.0895,0.0897,0.094,0.0863,0.1026,0.1034,0.1041,0.1064,0.1077,0.1088,0,0,0,0,0,0.0703,0.07,0.071,0.0716,0.0731,0.0772,0.0774,0.0796,0.0807,0.083,0.0861,0.084,0.0948,0.0898,0.09,0.0944,0.1022,0.1031,0.1041,0.1059,0.1074,0.1087,0,0,0,0,0,0,0.0675,0.0704,0.0715,0.0721,0.0765,0.0781,0.0797,0.082,0.0854,0.0871,0.087,0.0878,0.0944,0.0962,0.0907,0.1032,0.0991,0.1001,0.1005,0.1019,0.1031,0.0985,0.0864,0,0,0,0,0,0.067,0.0684,0.0719,0.0735,0.0751,0.0781,0.08,0.083,0.0865,0.0882,0.0903,0.0944,0.0974,0.1013,0.103,0.1094,0.1078,0.1139,0.1151,0.116,0.1133,0.1156,0.1165,0.1077,0.1077,0.1077,0,0,0.067,0.0688,0.0698,0.0733,0.0756,0.0783,0.0796,0.0849,0.0879,0.0884,0.0933,0.0965,0.0998,0.1061,0.1098,0.109,0.1189,0.1173,0.1179,0.1146,0.1166,0.1174,0.118,0.1083,0.1082,0.1081,0,0,0.068,0.069,0.0705,0.0737,0.0797,0.0813,0.0844,0.089,0.0917,0.0975,0.0991,0.1051,0.1109,0.1134,0.1155,0.125,0.123,0.1299,0.1334,0.1358,0.1363,0.1367,0.1381,0.1385,0.1328,0.1328,0.1329,0,0.068,0.0698,0.0722,0.0747,0.0776,0.0833,0.0864,0.0891,0.0962,0.0987,0.1008,0.1103,0.1126,0.1196,0.1239,0.1264,0.1284,0.1263,0.1364,0.1368,0.1371,0.1384,0.1389,0.1331,0.1331,0.133,0.133,0,0.0696,0.072,0.0738,0.0778,0.081,0.0859,0.0903,0.0954,0.1,0.1024,0.1109,0.1154,0.1216,0.1258,0.1269,0.1341,0.1349,0.1348,0.1304,0.138,0.1392,0.1396,0.1334,0.1334,0.1333,0.1332,0,0,0.0673,0.0735,0.0744,0.0772,0.0837,0.0867,0.0921,0.0978,0.1016,0.1092,0.1133,0.1214,0.1255,0.1284,0.1337,0.1373,0.1418,0.139,0.139,0.136,0.1482,0.1417,0.1415,0.1448,0.1449,0.1449,0.1485,0,0.0687,0.0732,0.076,0.0816,0.0843,0.0903,0.0937,0.0998,0.1055,0.1105,0.1169,0.123,0.1265,0.1325,0.1362,0.1401,0.143,0.1408,0.1449,0.1449,0.1345,0.1417,0.1451,0.1488,0.1489,0.149,0.149,0,0.0684,0.072,0.077,0.0835,0.085,0.0887,0.0964,0.1013,0.1084,0.1131,0.1212,0.1254,0.1339,0.1345,0.1435,0.1434,0.1453,0.1471,0.1473,0.1391,0.1391,0.1398,0.1497,0.1497,0.1496,0.1496,0.1495,0,0.065,0.0722,0.0764,0.0789,0.0865,0.0903,0.095,0.1023,0.1069,0.1163,0.121,0.1297,0.1367,0.1405,0.146,0.1466,0.1519,0.1528,0.1478,0.1474,0.1502,0.1497,0.1549,0.1549,0.1549,0.1549,0.1548,0,0.064,0.0676,0.0757,0.0781,0.083,0.089,0.0953,0.1015,0.1094,0.1141,0.1235,0.1293,0.1389,0.1436,0.146,0.1485,0.1528,0.1472,0.1477,0.1522,0.1519,0.1505,0.15,0.155,0.155,0.1549,0.1549,0,0.0597,0.0654,0.0702,0.0787,0.0817,0.0854,0.0953,0.0991,0.1091,0.1161,0.1199,0.1311,0.1399,0.1457,0.1517,0.1495,0.1508,0.1494,0.1532,0.154,0.1448,0.1445,0.1454,0.1452,0.145,0.1449,0.1448,0,0.058,0.0603,0.0692,0.072,0.0765,0.0836,0.0875,0.098,0.1025,0.1163,0.118,0.1301,0.1369,0.14,0.1466,0.1499,0.1486,0.1472,0.1458,0.1433,0.1438,0.1437,0.1436,0.1445,0.1444,0.1444,0.1444,0,0.0544,0.058,0.0621,0.0676,0.0725,0.0777,0.0849,0.0875,0.0994,0.1085,0.1156,0.1215,0.13,0.1365,0.1398,0.1413,0.1472,0.1454,0.1458,0.1445,0.1422,0.1428,0.1429,0.1438,0.1438,0.1439,0.1439,0,0.0516,0.0529,0.0583,0.0628,0.068,0.071,0.0757,0.082,0.0883,0.1032,0.1047,0.1176,0.1276,0.1319,0.1342,0.1365,0.1366,0.132,0.1331,0.1339,0.1288,0.1241,0.12,0,0,0,0,0,0.0489,0.05,0.0531,0.0578,0.062,0.0655,0.0732,0.0782,0.0891,0.0915,0.0986,0.1061,0.1147,0.1209,0.1219,0.1305,0.1364,0.131,0.1314,0.1404,0.1411,0.1364,0,0,0,0,0,0,0.0473,0.0499,0.0513,0.0526,0.0545,0.059,0.0637,0.0707,0.0734,0.0849,0.0904,0.0996,0.1096,0.1135,0.1198,0.1218,0.1201,0.1389,0.1387,0.14,0.1407,0.1412,0.1366,0,0,0,0,0]},{"header":{"parameterUnit":"m.s-1","parameterCategory":2,"la1":30.2991,"la2":30.254,"lo1":-89.0895,"lo2":-89.0444,"dy":0.0017,"dx":0.0017,"nx":28,"ny":28,"refTime":"2025-04-21T09:00:00:Z","depth":"4","parameterNumber":3,"parameterNumberName":"V-component_of_CURRENTS"},"data":[0,0,0,0,0,0,0,0,0,0,0,0,0,0,0,0,0,0,0,0,0,0,0,0,0,0,0,0,0,0,0,0,0,0,0,0,0,0,0,0,0,0,0,0,0,0,0,0,0,0,0,0,0,0,0,0,0,0,0.0088,0.0088,0,0.0069,0.0069,0.0069,0.0027,0.0026,0.0024,0.0023,-0.0018,-0.0017,-0.0017,0,0,0,0,0,0,0,0,0,0,0,0,0,0.0095,0.0096,0.0088,0.0087,0.0087,0.0069,0.0069,0.0069,0.0027,0.0026,0.0024,0.0022,-0.0018,-0.0018,-0.0017,0,0,0,0,0,0,0,0,0,0,0,0,0,0.0092,0.0096,0.0088,0.0059,0.0055,0.0069,0.0069,0.0069,0.0028,0.0026,0.0023,0.0021,-0.0018,-0.0018,-0.0017,0.0029,0,0,-0.0016,-0.0016,0,0,0,0,0,0,0,0,0.0092,0.0092,0.0064,0.0061,0.0057,0.0042,0.0056,0.0053,0.0028,0.0045,0.0023,0.002,-0.0002,-0.0003,0.0007,0.0027,0.0025,-0.0016,-0.0016,-0.0015,-0.0015,0,0,0,0,0,0,0,0.0092,0.0093,0.0087,0.0063,0.0059,0.0048,0.0046,0.0056,0.0039,0.0043,0.0039,0.0027,-0.0004,0.0007,0.0006,0.0024,-0.0016,-0.0016,-0.0015,-0.0015,-0.0007,-0.0007,0,0,0,0,0,0,0.0084,0.0094,0.0088,0.0086,0.0062,0.0049,0.0047,0.0055,0.0039,0.0032,0.0029,0.0025,0.0008,0.0006,0.0004,-0.0001,-0.0015,-0.0015,-0.0015,-0.0007,-0.0007,-0.0007,0,0,0,0,0,0,0.0085,0.0085,0.0088,0.0083,0.0081,0.0051,0.006,0.0055,0.0045,0.0027,0.0021,0.0019,0.0006,0.0004,-0.0005,-0.0001,-0.0015,-0.0015,-0.0006,-0.0007,-0.0007,0.0026,0,0,0,0,0,0,0.0086,0.0086,0.0097,0.0083,0.0081,0.008,0.0061,0.0056,0.0039,0.0033,0.0018,0.0012,0.0004,-0.0005,-0.0004,-0.0001,-0.0014,-0.0006,-0.0007,-0.0007,0.0025,0.0027,0.0029,0,0,0,0,0,0.0086,0.0106,0.0098,0.0097,0.0095,0.008,0.0079,0.0053,0.004,0.0037,0.0025,0.0012,-0.0006,-0.0004,-0.0003,0.0,-0.0006,-0.0006,-0.0007,0.0024,0.0026,0.0029,0,0,0,0,0,0,0.0115,0.0102,0.0094,0.0109,0.0087,0.0069,0.007,0.0052,0.0044,0.0037,0.0022,0.0017,0.0016,0.0001,0.0003,0.0,-0.0011,-0.0011,0.0012,0.0014,0.0016,0.0012,-0.0014,0,0,0,0,0,0.0128,0.0136,0.0114,0.0123,0.0116,0.0095,0.0088,0.0065,0.0051,0.0045,0.0036,0.0024,0.0024,0.001,0.0014,0.0015,-0.0011,0.0013,0.0015,0.0017,0.0013,-0.0015,-0.0016,-0.0007,-0.0007,-0.0007,0,0,0.0138,0.0133,0.0136,0.0128,0.0118,0.0116,0.0086,0.007,0.0068,0.0044,0.005,0.0042,0.0029,0.0031,0.0027,0.0012,-0.0001,0.0017,0.0019,0.0013,-0.0015,-0.0016,-0.0017,-0.0007,-0.0007,-0.0007,0,0,0.0152,0.0162,0.0167,0.0157,0.0132,0.0126,0.0117,0.0097,0.0087,0.0088,0.0072,0.0059,0.0061,0.0047,0.0041,0.0055,0.0023,0.0051,0.0046,0.002,0.0019,0.0017,-0.0022,-0.0027,0.0038,0.0038,0.0038,0,0.0159,0.0171,0.0163,0.0163,0.0157,0.0131,0.0129,0.0128,0.0106,0.0101,0.0088,0.0082,0.0071,0.0064,0.0061,0.0061,0.0032,0.0041,0.0023,0.0021,0.0019,-0.0021,-0.0027,0.0039,0.0039,0.0039,0.0039,0,0.017,0.0181,0.0185,0.0185,0.0183,0.0175,0.0164,0.0162,0.0152,0.0141,0.0133,0.0117,0.01,0.0097,0.0082,0.0063,0.0041,0.0041,0.0018,0.002,-0.0022,-0.0029,0.0042,0.0041,0.004,0.004,0,0,0.017,0.0188,0.0186,0.0193,0.019,0.0187,0.0197,0.0191,0.0189,0.0174,0.0166,0.0158,0.0132,0.0122,0.0098,0.0066,0.0028,0.0039,0.0037,0.0003,-0.0049,-0.0057,-0.0066,0.0019,0.0019,0.0018,-0.0076,0,0.0172,0.0186,0.0194,0.021,0.0218,0.0212,0.0226,0.0219,0.021,0.0203,0.0175,0.0167,0.0146,0.0128,0.0095,0.0051,0.0012,0.0052,-0.0049,-0.0052,-0.0057,-0.0073,0.0016,-0.0081,-0.0082,-0.0084,-0.0084,0,0.0173,0.0184,0.0199,0.0225,0.0227,0.0239,0.0247,0.0251,0.024,0.0228,0.0204,0.0184,0.014,0.0123,0.0035,0.0058,0.0003,-0.0035,-0.004,-0.0064,-0.0072,-0.0083,-0.0097,-0.0096,-0.0095,-0.0094,-0.0093,0,0.0169,0.019,0.0206,0.0211,0.0235,0.0243,0.0256,0.0255,0.0262,0.0237,0.0231,0.0182,0.0152,0.0084,0.0006,0.0012,-0.0094,-0.0092,-0.0152,-0.0154,-0.0132,-0.013,-0.0157,-0.0157,-0.0157,-0.0156,-0.0156,0,0.017,0.0181,0.0207,0.0215,0.0239,0.025,0.0268,0.0269,0.027,0.0281,0.0239,0.0225,0.014,0.0075,0.0001,-0.01,-0.01,-0.0161,-0.0179,-0.0118,-0.0113,-0.0138,-0.0134,-0.016,-0.0159,-0.0158,-0.0158,0,0.0164,0.0177,0.0199,0.0226,0.0239,0.0254,0.0291,0.0306,0.0297,0.0306,0.0299,0.0245,0.0155,0.0067,-0.005,-0.0105,-0.0197,-0.0232,-0.0173,-0.0184,-0.0243,-0.0236,-0.0316,-0.0318,-0.0318,-0.0319,-0.032,0,0.0161,0.0171,0.0207,0.023,0.0245,0.0274,0.0302,0.0316,0.0337,0.0322,0.0329,0.0246,0.02,0.0029,-0.0073,-0.0224,-0.0237,-0.029,-0.0258,-0.025,-0.0259,-0.0252,-0.0244,-0.0321,-0.0321,-0.0322,-0.0322,0,0.0159,0.0171,0.0194,0.0241,0.0276,0.0316,0.0356,0.0373,0.039,0.038,0.0354,0.0267,0.016,0.003,-0.0092,-0.0193,-0.0256,-0.03,-0.0298,-0.0269,-0.0257,-0.0263,-0.0255,-0.0325,-0.0325,-0.0324,-0.0324,0,0.0161,0.0178,0.0215,0.0257,0.0302,0.0352,0.0369,0.04,0.0415,0.0407,0.0391,0.0281,0.0213,0.0043,-0.0065,-0.0172,-0.0196,-0.0218,-0.0221,-0.0219,-0.0157,-0.0126,-0.0177,0,0,0,0,0,0.017,0.0198,0.0235,0.0284,0.033,0.0359,0.0409,0.0425,0.0439,0.0431,0.0417,0.0322,0.0153,0.0071,-0.0037,-0.0093,-0.0223,-0.0225,-0.0251,-0.0343,-0.0339,-0.0283,0,0,0,0,0,0,0.0181,0.0217,0.0236,0.0301,0.0338,0.0394,0.0427,0.0438,0.0434,0.0428,0.0339,0.0295,0.0125,0.0215,-0.0041,-0.0077,-0.0107,-0.0307,-0.031,-0.0345,-0.0341,-0.0338,-0.028,0,0,0,0,0]}]]